Back to catalog

SL-8 R/B

AlivePO
NORAD 20775·ROCKET BODY·🇷🇺 Russia

Launched Aug 28, 1990 from Plesetsk Cosmodrome

Loading…

Next Passes (next 24 hours)

TLE

FreshSource: Space-Track

Epoch: Sep 14, 2026, 11:41 UTC

1 20775U 90078B   26257.48734796  .00013186  00000-0  35851-3 0  9999
2 20775  82.8970  80.7516 0341695  95.4620 268.5674 14.94932504837454

Track SL-8 R/B in real time with AllMySat

Download on the App Store